EB5EEV-10 Weather Reports


time (UTC)temp
F
wind
direction
speed
knots
gust
knots
rain 1hr
in
rain 24hr
in
rain mn
in
humidity
%
barometer
mb
20230208160706 50 0 1.7 5.2 0.12 0.00 0.00 9 1022.9
20230208154754 51 90 1.7 3.5 0.14 0.00 0.00 9 1022.8
20230208152946 51 90 2.6 5.2 0.12 0.00 0.00 9 1023.0
20230208151046 51 135 0.0 5.2 0.07 0.00 0.00 8 1023.2
20230208145308 52 180 0.0 2.6 0.02 0.00 0.00 8 1023.2
20230208143404 52 0 1.7 5.2 0.01 0.00 0.00 8 1023.2
20230208141517 52 180 2.6 5.2 0.01 0.00 0.00 8 1022.9
20230208135614 52 0 0.0 0.9 0.02 0.00 0.00 8 1022.8
20230208133818 52 270 1.7 4.3 0.03 0.00 0.00 8 1022.6
20230208131935 51 90 2.6 6.1 0.03 0.00 0.00 9 1022.9
20230208130231 52 180 0.9 2.6 0.02 0.00 0.00 9 1023.0
20230208124325 52 0 2.6 5.2 0.01 0.00 0.00 9 1022.9
20230208122550 52 90 3.5 5.2 0.00 0.00 0.00 9 1022.9
20230208115106 50 0 0.0 1.7 0.09 0.00 0.00 9 1022.9
20230208113401 50 0 0.0 2.6 0.09 0.00 0.00 9 1023.2
20230208111701 50 45 2.6 5.2 0.09 0.00 0.00 9 1023.1
20230208105926 51 0 0.0 2.6 0.02 0.00 0.00 9 1022.9
20230208102322 49 90 0.0 0.9 0.02 0.00 0.00 9 1023.0
20230208100456 48 0 0.0 0.0 0.05 0.00 0.00 9 1022.7
20230208094524 49 0 0.0 0.9 0.10 0.00 0.00 9 1022.3
20230208092536 49 315 3.5 5.2 0.11 0.00 0.00 9 1022.2
20230208090701 49 270 2.6 4.3 0.12 0.00 0.00 9 1022.2
20230208084846 48 270 5.2 7.0 0.14 0.00 0.00 9 1022.2
20230208083122 48 270 3.5 6.1 0.17 0.00 0.00 9 1022.2
20230208081353 48 270 2.6 5.2 0.33 0.00 0.00 9 1022.5
20230208075541 47 0 0.0 0.9 0.27 0.00 0.00 9 1022.2
20230208073743 49 270 1.7 3.5 0.28 0.00 0.00 9 1021.9
20230208071916 49 270 2.6 5.2 0.16 0.00 0.00 9 1021.7
20230208070201 49 270 0.9 2.6 0.14 0.00 0.00 9 1021.5
20230208064456 48 270 2.6 5.2 0.12 0.00 0.00 8 1021.6
20230208062731 47 0 0.0 0.0 0.07 0.00 0.00 8 1021.4
20230208060847 47 0 0.0 0.0 0.05 0.00 0.00 8 1021.2
20230208054951 48 315 0.0 0.9 0.00 0.00 0.00 8 1021.0
20230208053131 48 0 0.0 0.0 0.00 0.00 0.00 8 1020.9
20230208051401 48 0 0.0 0.0 0.00 0.00 0.00 8 1021.1
20230208045511 48 0 0.0 0.0 0.00 0.00 0.00 8 1020.8
20230208043631 48 0 0.0 0.0 0.00 0.00 0.00 8 1021.0
20230208041931 48 0 0.0 0.9 0.00 0.00 0.00 8 1020.7
20230208040246 48 0 0.0 0.0 0.00 0.00 0.00 8 1020.6
20230208034556 48 0 0.0 0.0 0.00 0.00 0.00 8 1020.9
20230208032812 48 0 0.0 0.0 0.00 0.00 0.00 8 1020.8
20230208030921 48 270 1.7 2.6 0.00 0.00 0.00 8 1020.8
20230208025036 49 270 2.6 2.6 0.00 0.00 0.00 7 1020.9
20230208023414 49 0 0.0 0.0 0.00 0.00 0.00 7 1020.7
20230208021641 49 0 0.0 0.0 0.00 0.00 0.00 7 1020.6
20230208015952 49 0 0.0 0.0 0.00 0.00 0.00 7 1020.6
20230208012426 49 270 4.3 6.1 0.00 0.00 0.00 7 1020.6
20230208010641 50 270 1.7 3.5 0.00 0.00 0.00 7 1020.5
20230207224031 50 0 1.7 2.6 0.00 0.00 0.00 7 1020.4
20230207222139 50 315 2.6 5.2 0.00 0.00 0.00 7 1020.4
20230207220426 50 315 0.0 1.7 0.00 0.00 0.00 7 1020.5
20230207214711 50 270 0.0 2.6 0.00 0.00 0.00 7 1020.3
20230207212952 51 0 0.0 1.7 0.00 0.00 0.00 7 1020.3
20230207211330 51 0 0.9 2.6 0.00 0.00 0.00 7 1020.3
20230207205511 51 45 2.6 7.0 0.00 0.00 0.00 7 1020.1
20230207203622 51 90 0.9 2.6 0.00 0.00 0.00 7 1019.9
20230207201721 51 270 2.6 5.2 0.00 0.00 0.00 7 1019.8
20230207200021 51 135 2.6 6.1 0.00 0.00 0.00 7 1019.8
20230207194251 51 0 1.7 6.1 0.00 0.00 0.00 7 1019.9
20230207192341 51 180 1.7 3.5 0.00 0.00 0.00 7 1020.0
20230207190511 51 45 2.6 4.3 0.00 0.00 0.00 7 1019.8
20230207184751 51 315 1.7 3.5 0.00 0.00 0.00 7 1019.6
20230207182758 51 0 2.6 4.3 0.00 0.00 0.00 6 1019.6
20230207180915 51 0 1.7 4.3 0.00 0.00 0.00 6 1019.5
20230207175159 51 45 3.5 5.2 0.00 0.00 0.00 6 1019.3
20230207173319 51 0 0.0 1.7 0.00 0.00 0.00 6 1019.0
20230207171406 51 0 1.7 2.6 0.00 0.00 0.00 7 1019.2
20230207165626 51 0 3.5 6.1 0.00 0.00 0.00 7 1019.2
20230207163825 51 45 4.3 7.8 0.00 0.00 0.00 6 1019.1